Flag for U.S.A. Weather past 2 weeks in Dallas, Texas, U.S.A.

Now
38 °F

Drizzle. Fog.


Feels Like: 33 °F
Forecast: 37 / 44 °F
Wind: 7 mph from North

Location: Dallas Love Field

Current Time: Mar 1, 2015 at 6:10:53 PM

Latest Report: Mar 1, 2015 at 4:53 PM


Visibility: 4 mi

Pressure: 30.34 "Hg

Humidity: 90%

Dew point: 35 °F

Location of DallasLocation

Historic Weather in Dallas — Graph

°F

Dallas temperature yesterday

Maximum temperature yesterday: 32 °F (at 2:53 PM)
Minimum temperature yesterday: 27 °F (at 12:53 AM)
Average temperature yesterday: 30 °F

Past Weeks' High & Low Weather Summary

 TemperatureHumidityPressure
High78 °F (Feb 14, 4:53 PM)96% (Feb 25, 3:53 AM)30.59 "Hg (Feb 25, 3:53 AM)
Low26 °F (Feb 23, 8:02 AM)22% (Feb 14, 4:53 PM)29.66 "Hg (Feb 21, 3:53 AM)
Average41 °F72%30.19 "Hg
* Reported Feb 14 4:53 PM — Mar 1 4:53 PM, Dallas, Weather by CustomWeather, © 2015

Note: Actual official high and low records may vary slightly from our data, if they occured in-between our weather recording intervals... More about our weather records

Advertising

Dallas weather history for previous 24 hours

 ConditionsComfort  
Time TempWeatherWind HumidityBarometerVisibility
4:53 PM
Sun, Mar 1
38 °FDrizzle. Fog.7 mph90%30.34 "Hg4 mi
3:53 PM38 °FLow clouds.13 mph86%30.33 "Hg10 mi
2:53 PM38 °FLow clouds.13 mph90%30.32 "Hg10 mi
1:53 PM37 °FFog.10 mph89%30.33 "Hg6 mi
1:00 PM37 °FLight rain. Fog.12 mph93%30.34 "Hg2 mi
12:03 PM37 °FFog.9 mph93%30.35 "Hg6 mi
11:53 AM37 °FFog.7 mph93%30.35 "Hg2 mi
10:53 AM36 °FLight rain. Fog.6 mph92%30.37 "Hg2 mi
9:53 AM35 °FLight rain. Fog.6 mph92%30.37 "Hg2 mi
8:53 AM34 °FLight rain. Fog.7 mph92%30.36 "Hg1 mi
8:00 AM33 °FLight rain. Fog.5 mph96%30.34 "Hg1 mi
7:53 AM33 °FLight rain. Fog.6 mph96%30.35 "Hg1 mi
7:01 AM33 °FLight rain. Fog.6 mph96%30.32 "Hg1 mi
6:53 AM33 °FDrizzle. Fog.6 mph96%30.32 "Hg1 mi
5:53 AM33 °FDrizzle. Fog.6 mph96%30.32 "Hg1 mi
4:53 AM33 °FLight rain. Fog.5 mph96%30.31 "Hg1 mi
3:53 AM33 °FLight rain. Fog.3 mph92%30.30 "Hg2 mi
2:53 AM33 °FLight rain. Fog.3 mph92%30.31 "Hg2 mi
1:53 AM33 °FLight rain. Fog.No wind92%30.32 "Hg2 mi
12:53 AM33 °FLight rain. Fog.3 mph92%30.33 "Hg3 mi
11:53 PM
Sat, Feb 28
32 °FLight freezing rain. Ice fog.3 mph92%30.34 "Hg4 mi
10:53 PM32 °FLight freezing rain. Ice fog.6 mph92%30.35 "Hg5 mi
9:53 PM32 °FLight freezing rain. Ice fog.5 mph92%30.36 "Hg4 mi
8:53 PM32 °FLight freezing rain. Ice fog.5 mph92%30.35 "Hg3 mi
7:53 PM32 °FLight freezing rain. Ice fog.6 mph88%30.34 "Hg4 mi
6:53 PM32 °FLight freezing rain. Ice fog.6 mph88%30.33 "Hg6 mi
Weather by CustomWeather, © 2015

See weather overviewHow to use our weather pages